Regional Weather Roundup
Issued by NWS

Home | Current Version | Previous Version | Graphics & Text | Print | Product List | Glossary On
Versions: 1 2 3 4 5 6 7 8 9 10 11 12 13 14 15 16 17 18 19 20 21 22 23 24 25 26 27 28 29 30 31 32 33 34 35 36 37 38 39 40 41 42 43 44 45 46 47 48 49 50
000
ASUS44 KMEG 170900
RWRTN
TENNESSEE HOURLY STATE WEATHER ROUNDUP
NATIONAL WEATHER SERVICE MEMPHIS TN
400 AM CDT WED SEP 17 2014

TNZ002-004-019-021-049-052-054-088>092-171000-
WEST TENNESSEE

CITY           SKY/WX    TMP DP  RH WIND       PRES   REMARKS
MEMPHIS INTL   CLEAR     66  59  78 E7        30.02F
NWS MEMPHIS      N/A     63 N/A N/A MISG        N/A
JACKSON        CLEAR     58  55  90 N6        30.04S
DYERSBURG      CLEAR     55  45  67 NE6       30.06F
PARIS          CLEAR     48  48 100 CALM      30.06S
SAVANNAH       CLEAR     61  61 100 CALM      30.02F
$$

TNZ008-025-027-028-033-062-065-066-171000-
NORTH MIDDLE TENNESSEE

CITY           SKY/WX    TMP DP  RH WIND       PRES   REMARKS
NASHVILLE      PTCLDY    56  54  93 N5        30.03F
CLARKSVILLE    PTCLDY    51  50  96 N3        30.05S FOG
COOKEVILLE     CLOUDY    57  57 100 NE3       30.04S VSB 1/2
CROSSVILLE     FOG       56  54  93 NE3       30.06S VSB 1/4
$$

TNZ061-075-076-078-094-096-097-171000-
SOUTH MIDDLE TENNESSEE

CITY           SKY/WX    TMP DP  RH WIND       PRES   REMARKS
SHELBYVILLE    PTCLDY    57  57 100 CALM      30.03F
$$

TNZ017-018-042-046-047-171000-
NORTHEAST TENNESSEE

CITY           SKY/WX    TMP DP  RH WIND       PRES   REMARKS
TRI CITIES     PTCLDY    59  55  87 CALM      30.02F
$$

TNZ012-013-036-069-073-074-171000-
CENTRAL EAST TENNESSEE

CITY           SKY/WX    TMP DP  RH WIND       PRES   REMARKS
KNOXVILLE      CLOUDY    62  59  90 N5        30.01S
OAK RIDGE      PTCLDY    58  56  93 CALM      30.04S
$$

TNZ083-085-099-171000-
SOUTHEAST TENNESSEE

CITY           SKY/WX    TMP DP  RH WIND       PRES   REMARKS
CHATTANOOGA    CLEAR     65  60  84 NW6       30.01S
$$

SKY/WX REPORTED AS FAIR MEANS FEW OR NO CLOUDS BELOW
12 THOUSAND FEET.




USA.gov is the U.S. government's official web portal to all federal, state and local government web resources and services.